RH
76 82 84 88 98 98 97 100 100 100 100 100 100 98 98 97 96 96 94 73 50 26 13 11 11 12 12 11 11 10 10 9 7 8 9 9 9 8 8 7 7 6 6
82 87 92 92 93 94 94 95 95 95 100 100 100 100 91 66 38 24 17 14 14 14 15 15 14 15 14 14 14 13 12 12 11 9 10 11 12 11 10 9 9 8 8
94 97 99 100 100 99 98 91 72 50 28 20 15 14 15 17 19 19 19 19 19 18 18 17 16 16 15 15 14 14 14 14 13 13 12 14 13 12 12 11 11 11 9
93 93 73 42 23 15 14 14 15 16 16 16 16 16 16 16 17 18 18 18 18 17 17 16 15 15 14 14 14 14 15 16 16 16 16 15 14 14 15 16 14 15 13
30 16 16 17 18 18 18 19 19 19 19 18 18 18 18 18 17 16 17 18 18 17 16 15 13 12 12 12 12 13 14 15 17 18 17 16 15 16 23 22 18 19 16
18 17 16 18 20 21 19 18 17 18 20 20 23 24 23 23 23 21 19 16 15 14 13 11 10 9 9 10 10 10 11 11 13 15 16 16 15 24 34 30 29 25 16
17 19 19 18 18 18 19 20 23 25 26 28 29 28 25 22 20 18 16 14 13 12 11 10 9 8 7 7 7 7 8 8 10 13 16 17 17 45 59 48 34 33 21
17 17 17 18 20 22 24 26 27 30 33 34 32 28 23 20 19 17 16 14 13 12 10 10 9 8 6 6 7 7 7 11 14 17 19 18 36 75 79 54 46 32 20
16 18 20 22 25 28 28 32 36 37 33 29 25 22 20 17 14 12 10 9 8 8 7 6 5 6 17 29 15 10 9 11 20 22 22 37 100 100 82 65 37 19 17
20 20 22 29 32 30 31 34 36 33 28 24 20 14 10 7 6 6 7 7 7 7 7 6 7 52 100 99 80 29 9 28 32 31 52 100 100 100 77 55 28 13 18
19 22 29 32 33 38 40 37 34 27 20 13 8 7 8 10 11 13 14 14 12 10 11 9 16 100 100 100 99 35 47 74 55 43 33 96 100 100 79 61 45 16 20
22 30 34 39 47 46 40 34 24 13 9 8 10 13 18 21 21 20 21 20 14 10 13 17 19 100 100 100 100 70 100 99 97 85 83 78 98 100 88 70 62 18 18
29 35 40 50 50 43 33 18 12 9 11 16 21 23 23 25 28 28 23 17 14 13 14 16 17 81 100 100 100 99 100 100 100 100 100 100 96 100 90 77 67 34 23
33 38 49 49 43 34 17 12 10 16 24 25 26 28 28 27 25 22 21 21 28 23 18 20 19 14 89 100 88 100 100 100 100 100 100 99 87 81 87 84 65 42 31
34 45 49 46 37 21 13 11 19 30 35 32 29 25 22 20 23 24 26 100 100 57 76 78 70 88 74 100 98 100 100 100 100 100 100 100 100 100 93 76 67 42 43
38 47 46 40 25 16 10 14 29 36 32 24 25 29 27 26 23 25 90 100 100 100 100 100 100 100 100 100 100 100 100 100 100 100 100 100 92 92 86 92 81 53 55
43 44 41 34 19 12 14 25 26 24 24 30 29 32 33 29 30 26 99 100 100 100 100 100 100 100 100 100 100 100 100 100 100 100 100 100 100 100 69 63 65 59 61
42 43 41 23 16 13 24 32 32 23 23 26 28 27 29 38 35 29 98 100 100 100 100 100 100 100 100 100 100 100 100 100 100 100 100 100 100 100 93 69 60 57 57
42 43 37 19 14 19 34 39 42 30 31 31 25 24 28 39 43 34 75 100 100 100 100 100 100 100 100 100 100 100 100 99 77 54 69 98 100 100 99 93 88 76 66
44 45 29 18 14 26 40 46 54 47 36 41 31 25 28 37 46 40 36 100 100 100 100 100 100 100 100 100 100 100 100 88 45 36 27 41 91 98 98 91 70 63 62
44 44 27 17 16 34 41 55 67 68 51 44 43 32 28 30 39 46 36 55 100 100 100 100 100 100 100 100 100 100 93 57 43 39 50 80 86 89 98 94 84 66 57
45 47 29 17 18 36 46 61 69 77 79 60 50 42 29 33 29 42 40 38 81 100 100 100 100 100 100 100 100 100 100 95 56 40 31 59 94 93 88 97 89 73 60
48 49 32 18 18 38 49 62 74 78 83 89 58 53 38 31 33 30 41 37 39 93 97 100 100 100 100 100 100 100 100 100 81 56 32 39 84 98 90 91 84 69 62
50 52 36 19 18 39 49 69 72 82 88 92 92 56 55 36 32 33 29 37 37 37 57 87 100 100 100 100 100 100 98 100 100 50 37 36 41 76 92 86 87 74 65
51 53 43 21 17 36 48 70 75 82 93 94 95 97 67 54 38 35 35 26 33 36 38 57 75 96 100 100 100 100 100 100 99 98 57 40 40 70 83 88 85 82 68
52 56 54 25 18 28 45 60 75 83 86 98 100 100 100 82 52 45 37 38 29 25 35 37 49 63 80 96 100 100 100 100 95 100 77 54 42 70 93 97 99 97 83
Wind_Speed
45 45 47 49 51 53 55 57 59 61 63 64 66 69 71 73 73 72 72 71 69 67 66 65 65 64 64 65 66 66 66 68 69 67 68 68 69 70 72 74 77 78 81
46 51 53 54 55 57 59 62 64 66 67 69 70 72 73 73 73 74 74 74 73 73 73 71 70 69 68 68 68 69 70 69 70 69 70 68 67 69 71 73 73 73 72
52 54 54 56 58 61 63 66 67 68 69 70 70 72 74 75 76 77 77 77 76 76 76 74 73 72 71 70 68 68 69 69 68 67 65 68 68 67 64 65 65 65 64
54 53 55 55 58 61 64 67 70 72 74 77 79 80 80 80 79 79 80 79 79 79 78 75 74 73 72 71 69 68 67 67 67 67 66 68 67 65 64 65 63 61 60
54 56 60 62 64 66 68 71 73 75 76 78 79 80 81 80 79 80 80 80 80 79 78 75 72 72 71 71 70 69 70 69 69 68 66 65 63 63 64 62 61 60 57
59 61 65 67 68 70 72 74 75 76 77 78 78 78 77 77 76 76 77 77 76 76 74 72 70 70 69 70 70 70 70 69 68 67 64 62 60 60 60 60 59 58 54
63 66 70 73 74 76 77 76 75 75 76 77 76 75 74 73 73 73 73 74 74 73 72 70 68 68 67 67 67 67 68 68 67 65 61 59 56 56 57 56 56 53 50
68 71 75 77 78 77 76 75 76 76 76 75 74 75 74 72 70 71 72 73 74 73 72 71 70 68 66 66 64 65 66 64 63 61 58 53 54 56 54 53 51 49 48
74 75 76 76 74 73 73 73 73 73 73 72 72 71 71 69 70 71 74 74 75 74 72 71 69 66 61 61 62 63 62 60 59 57 53 50 51 53 51 51 48 47 45
75 76 76 73 73 72 72 73 72 73 73 70 69 71 73 72 70 70 68 69 70 66 63 62 61 54 61 56 56 58 56 54 56 53 49 50 52 49 48 47 45 45 45
76 76 74 73 73 73 72 72 72 71 70 72 72 69 66 65 64 62 61 61 60 58 57 52 54 50 52 57 53 51 46 48 50 49 51 52 51 48 46 44 43 43 42
76 74 72 72 70 71 71 71 71 73 73 69 65 63 62 61 60 59 58 58 55 52 50 49 51 52 47 49 50 47 41 46 45 44 46 48 47 48 45 43 42 42 42
73 71 71 69 69 70 71 72 74 70 66 64 65 63 60 57 55 55 58 54 45 44 44 47 50 61 55 48 45 39 41 43 42 42 42 43 43 44 44 42 40 42 40
72 72 69 69 68 69 71 76 71 66 67 66 65 62 58 56 56 51 44 37 33 34 38 42 46 48 53 40 40 36 41 43 41 41 42 42 40 41 43 39 38 40 36
73 69 69 68 69 69 74 71 68 66 67 66 64 66 62 53 43 35 28 23 23 21 21 26 32 34 49 49 41 34 36 40 41 40 40 39 40 41 42 40 39 39 35
71 69 68 69 69 74 73 66 67 65 64 65 63 59 52 44 32 23 21 20 21 26 26 28 30 30 36 41 40 37 32 37 40 40 40 39 38 37 35 37 38 36 34
70 69 68 69 72 75 71 70 67 62 62 59 57 53 48 38 25 21 25 19 18 20 25 29 26 26 31 38 35 36 34 33 40 39 39 38 34 36 35 35 35 33 32
69 68 69 70 74 72 70 68 67 69 64 57 52 49 42 33 23 21 30 23 23 22 23 26 27 28 32 36 34 34 34 32 37 38 38 37 35 33 37 36 34 32 30
68 67 68 70 72 68 66 65 66 67 64 62 54 45 37 27 21 22 35 29 29 27 25 27 29 30 32 33 36 40 35 33 29 26 28 34 35 35 31 33 33 31 29
66 66 67 70 70 65 62 62 65 67 64 62 56 47 34 24 20 22 31 39 35 34 30 29 33 34 35 37 37 35 37 37 30 27 28 34 35 36 34 32 29 27 24
64 65 66 70 66 63 60 60 63 65 67 63 58 49 38 25 19 21 31 39 42 39 36 33 34 38 38 37 38 38 38 33 30 27 28 34 36 36 33 33 32 29 25
62 63 64 68 63 60 57 57 60 62 64 66 60 52 42 30 19 19 26 36 44 45 42 39 37 38 40 39 37 38 40 39 36 32 30 30 32 36 36 33 32 31 28
61 62 63 65 61 57 53 55 58 59 60 63 63 56 47 36 24 17 21 31 39 49 51 46 42 41 42 43 42 40 38 40 39 36 33 30 30 33 35 34 33 32 29
60 60 61 63 59 54 51 54 56 56 57 59 60 60 53 44 32 20 17 24 34 41 47 55 50 47 45 45 46 45 43 41 41 36 33 30 29 30 32 34 34 33 31
60 58 59 59 58 52 48 50 54 55 55 55 56 58 58 51 41 30 18 17 25 34 41 45 57 56 52 49 49 48 47 45 43 42 39 35 30 31 32 32 34 33 32
60 57 58 57 57 52 47 46 50 52 53 54 54 53 56 56 49 40 29 18 17 24 35 42 48 53 60 58 54 52 53 50 46 43 42 38 34 33 34 33 33 33 32
Wind_Direction
297 295 295 295 293 291 288 287 286 285 284 283 283 284 284 285 286 285 285 285 284 282 280 279 278 277 276 275 274 273 271 271 271 269 269 268 267 267 266 265 264 264 262
299 298 298 296 294 293 291 290 289 288 287 286 286 285 285 286 287 286 285 285 284 284 283 281 279 277 276 274 274 273 272 271 271 270 269 267 265 263 263 263 264 265 266
302 300 297 296 294 292 290 289 289 289 288 287 286 286 286 286 286 285 285 284 282 282 281 280 279 277 276 274 272 270 269 267 266 265 263 262 263 264 263 264 265 268 268
304 301 299 297 296 296 295 294 293 291 290 289 289 288 286 284 284 284 283 282 281 279 278 278 277 275 274 272 270 268 266 265 264 263 262 262 263 264 263 262 264 266 268
307 305 303 302 300 298 297 296 294 293 291 290 288 287 286 285 285 284 283 281 281 279 278 277 275 274 272 270 268 265 264 263 262 262 262 263 263 262 261 262 263 264 266
308 307 306 305 304 302 300 298 297 296 295 294 292 289 288 286 283 282 281 280 278 276 275 274 272 270 269 267 266 265 263 262 262 261 261 261 260 259 260 261 261 263 264
312 311 309 307 304 303 302 301 299 298 296 295 292 289 287 286 284 281 279 278 276 275 275 274 272 271 268 266 264 262 261 260 259 260 259 258 256 256 256 258 260 266 270
313 311 310 308 307 305 304 302 301 299 297 295 293 291 290 289 285 282 280 277 275 274 273 272 270 268 267 265 263 261 259 258 257 256 255 253 253 252 253 256 260 265 269
314 314 312 309 308 307 306 303 301 300 299 298 296 293 291 289 286 283 280 278 275 273 270 267 264 262 260 259 260 259 258 256 254 251 250 249 249 250 251 254 257 262 268
317 316 315 314 312 310 308 307 306 304 303 301 299 297 295 292 289 286 284 281 277 273 269 263 255 254 254 259 261 259 257 252 249 247 242 248 248 245 248 252 254 259 268
322 320 318 316 314 312 312 310 309 307 305 304 303 299 296 293 291 289 286 282 280 272 263 256 247 239 247 252 257 261 253 247 244 242 241 244 243 240 244 250 256 258 266
323 321 320 318 317 315 314 313 312 311 310 308 305 302 299 297 294 291 288 287 283 270 255 248 244 232 239 249 251 259 245 240 238 239 241 243 246 242 241 247 255 258 265
324 324 322 321 319 318 317 317 317 315 312 310 306 304 301 298 295 293 292 288 277 264 249 245 238 234 243 247 251 239 242 235 235 237 238 241 242 242 241 246 252 257 266
327 325 324 323 322 322 322 322 321 318 315 313 309 307 305 301 298 295 286 279 272 262 246 237 236 238 232 235 245 245 238 232 233 233 234 235 237 238 245 244 250 258 266
328 328 327 326 325 326 327 325 323 322 319 315 312 309 307 305 301 287 270 263 264 238 229 235 231 229 230 234 238 239 237 234 233 230 231 233 237 240 242 242 247 257 264
331 330 329 328 329 329 330 329 327 325 322 318 315 314 310 308 302 268 232 239 237 241 242 233 230 223 217 221 228 230 239 239 232 230 230 230 232 238 241 243 247 255 261
332 331 331 331 332 333 334 333 332 330 331 328 323 318 312 309 293 247 216 222 234 228 225 226 225 217 221 219 229 232 233 242 232 232 232 233 235 235 238 240 248 256 260
333 333 334 335 336 337 337 337 338 339 338 336 330 323 314 305 285 237 210 215 221 231 224 220 219 216 225 218 225 233 240 233 233 232 235 235 236 238 238 240 244 251 257
335 336 337 338 339 339 340 342 345 345 345 343 339 332 322 305 277 236 214 214 217 219 225 218 216 214 214 215 222 230 236 231 224 230 239 238 236 236 237 240 244 247 252
337 337 339 340 341 342 343 347 349 351 350 349 346 341 332 311 277 246 221 215 217 217 218 221 215 215 215 217 222 228 230 223 224 233 245 238 236 235 238 237 238 240 243
338 339 341 342 344 345 346 350 351 354 356 355 353 348 341 327 290 253 229 221 219 218 219 218 221 217 218 218 223 226 223 221 223 232 242 240 234 233 234 235 234 236 238
339 341 343 345 346 347 349 351 352 354 358 0 358 356 350 338 313 268 240 228 221 220 220 219 219 220 219 219 221 225 229 231 225 229 240 240 235 232 229 229 230 232 234
341 343 345 346 347 348 350 352 353 355 358 1 2 1 358 350 332 295 255 235 229 222 221 221 219 220 220 220 222 223 226 227 228 227 231 242 234 229 227 224 226 228 231
342 343 346 348 349 349 349 353 355 356 358 2 4 5 4 0 351 327 282 250 236 232 228 223 221 220 219 219 222 224 224 224 224 219 225 229 232 228 226 221 222 226 228
343 344 347 349 350 350 350 352 355 358 359 1 4 7 7 6 3 352 325 277 249 238 234 230 224 223 222 219 218 220 223 224 224 223 223 226 234 228 228 223 220 221 225
344 345 348 349 351 351 350 352 355 358 0 2 3 3 6 8 7 5 355 327 278 251 239 234 232 228 224 225 222 219 219 220 225 220 216 220 229 231 228 223 221 219 220